Time,TemperatureF,DewpointF,PressureIn,WindDirection,WindDirectionDegrees,WindSpeedMPH,WindSpeedGustMPH,Humidity,HourlyPrecipIn,Conditions,Clouds,dailyrainin,SoftwareType,DateUTC
2013-02-03 00:01:00,36.0,36.0,30.21,SW,233,10.0,15.0,108,-99.99,,,-99.99,,2013-02-03 08:01:00,
2013-02-03 00:11:00,36.0,36.0,30.21,SW,233,10.0,13.0,108,-99.99,,,-99.99,,2013-02-03 08:11:00,
2013-02-03 00:22:00,36.0,36.0,30.21,SW,235,10.0,14.0,108,-99.99,,,-99.99,,2013-02-03 08:22:00,
2013-02-03 00:32:00,36.0,36.0,30.21,SSW,209,8.0,13.0,108,-99.99,,,-99.99,,2013-02-03 08:32:00,
2013-02-03 00:41:00,36.0,36.0,30.21,SSW,209,8.0,13.0,108,-99.99,,,-99.99,,2013-02-03 08:41:00,
2013-02-03 00:52:00,35.0,35.0,30.21,SW,216,10.0,14.0,108,-99.99,,,-99.99,,2013-02-03 08:52:00,
2013-02-03 01:02:00,36.0,36.0,30.21,SSW,198,8.0,14.0,108,-99.99,,,-99.99,,2013-02-03 09:02:00,
2013-02-03 01:11:00,36.0,36.0,30.21,SW,219,9.0,16.0,108,-99.99,,,-99.99,,2013-02-03 09:11:00,
2013-02-03 01:21:00,36.0,36.0,30.21,SW,214,9.0,15.0,108,-99.99,,,-99.99,,2013-02-03 09:21:00,
2013-02-03 01:31:00,36.0,36.0,30.20,SW,219,9.0,15.0,108,-99.99,,,-99.99,,2013-02-03 09:31:00,
2013-02-03 01:41:00,36.0,36.0,30.20,SW,224,11.0,17.0,108,-99.99,,,-99.99,,2013-02-03 09:41:00,
2013-02-03 01:51:00,36.0,36.0,30.20,SW,217,9.0,16.0,108,-99.99,,,-99.99,,2013-02-03 09:51:00,
2013-02-03 02:01:00,36.0,36.0,30.20,SW,215,10.0,15.0,108,-99.99,,,-99.99,,2013-02-03 10:01:00,
2013-02-03 02:11:00,36.0,36.0,30.20,SW,222,10.0,14.0,108,-99.99,,,-99.99,,2013-02-03 10:11:00,
2013-02-03 02:21:00,36.0,36.0,30.20,SW,224,9.0,15.0,108,-99.99,,,-99.99,,2013-02-03 10:21:00,
2013-02-03 02:31:00,36.0,36.0,30.20,SW,218,8.0,13.0,108,-99.99,,,-99.99,,2013-02-03 10:31:00,
2013-02-03 02:41:00,36.0,36.0,30.20,SW,218,8.0,12.0,108,-99.99,,,-99.99,,2013-02-03 10:41:00,
2013-02-03 02:52:00,36.0,36.0,30.20,SW,231,11.0,16.0,108,-99.99,,,-99.99,,2013-02-03 10:52:00,
2013-02-03 03:02:00,36.0,36.0,30.20,SW,218,10.0,16.0,108,-99.99,,,-99.99,,2013-02-03 11:02:00,
2013-02-03 03:11:00,36.0,36.0,30.20,SW,215,9.0,12.0,108,-99.99,,,-99.99,,2013-02-03 11:11:00,
2013-02-03 03:22:00,36.0,36.0,30.20,SW,215,8.0,14.0,108,-99.99,,,-99.99,,2013-02-03 11:22:00,
2013-02-03 03:31:00,36.0,36.0,30.20,SW,215,8.0,14.0,108,-99.99,,,-99.99,,2013-02-03 11:31:00,
2013-02-03 03:41:00,35.0,35.0,30.20,SW,224,10.0,15.0,108,-99.99,,,-99.99,,2013-02-03 11:41:00,
2013-02-03 03:52:00,35.0,35.0,30.20,SW,222,9.0,14.0,108,-99.99,,,-99.99,,2013-02-03 11:52:00,
2013-02-03 04:02:00,36.0,36.0,30.20,SW,235,9.0,14.0,108,-99.99,,,-99.99,,2013-02-03 12:02:00,
2013-02-03 04:11:00,35.0,35.0,30.20,SW,222,9.0,13.0,108,-99.99,,,-99.99,,2013-02-03 12:11:00,
2013-02-03 04:22:00,35.0,35.0,30.20,SW,228,8.0,13.0,108,-99.99,,,-99.99,,2013-02-03 12:22:00,
2013-02-03 04:32:00,35.0,35.0,30.19,SW,215,11.0,16.0,108,-99.99,,,-99.99,,2013-02-03 12:32:00,
2013-02-03 04:42:00,35.0,35.0,30.19,SW,228,12.0,19.0,108,-99.99,,,-99.99,,2013-02-03 12:42:00,
2013-02-03 04:52:00,35.0,35.0,30.19,SW,227,11.0,18.0,108,-99.99,,,-99.99,,2013-02-03 12:52:00,
2013-02-03 05:03:00,35.0,35.0,30.19,WSW,242,11.0,16.0,108,-99.99,,,-99.99,,2013-02-03 13:03:00,
2013-02-03 05:11:00,35.0,35.0,30.19,SW,232,14.0,20.0,108,-99.99,,,-99.99,,2013-02-03 13:11:00,
2013-02-03 05:21:00,35.0,35.0,30.19,SW,228,8.0,15.0,108,-99.99,,,-99.99,,2013-02-03 13:21:00,
2013-02-03 05:32:00,35.0,35.0,30.19,SW,234,9.0,15.0,108,-99.99,,,-99.99,,2013-02-03 13:32:00,
2013-02-03 05:42:00,35.0,35.0,30.19,WSW,242,9.0,15.0,108,-99.99,,,-99.99,,2013-02-03 13:42:00,
2013-02-03 05:52:00,35.0,35.0,30.19,WSW,245,8.0,14.0,108,-99.99,,,-99.99,,2013-02-03 13:52:00,
2013-02-03 06:02:00,35.0,35.0,30.20,SW,236,11.0,18.0,108,-99.99,,,-99.99,,2013-02-03 14:02:00,
2013-02-03 06:11:00,35.0,35.0,30.20,WSW,247,9.0,14.0,108,-99.99,,,-99.99,,2013-02-03 14:11:00,
2013-02-03 06:21:00,35.0,35.0,30.20,SW,235,9.0,18.0,108,-99.99,,,-99.99,,2013-02-03 14:21:00,
2013-02-03 06:32:00,36.0,36.0,30.19,WSW,240,9.0,15.0,108,-99.99,,,-99.99,,2013-02-03 14:32:00,
2013-02-03 06:42:00,35.0,35.0,30.19,SW,214,7.0,11.0,108,-99.99,,,-99.99,,2013-02-03 14:42:00,
2013-02-03 06:52:00,35.0,35.0,30.20,WSW,247,5.0,12.0,108,-99.99,,,-99.99,,2013-02-03 14:52:00,
2013-02-03 07:03:00,35.0,35.0,30.20,SW,218,6.0,13.0,108,-99.99,,,-99.99,,2013-02-03 15:03:00,
2013-02-03 07:11:00,35.0,35.0,30.19,SW,215,8.0,11.0,108,-99.99,,,-99.99,,2013-02-03 15:11:00,
2013-02-03 07:21:00,35.0,35.0,30.18,SSW,204,7.0,13.0,108,-99.99,,,-99.99,,2013-02-03 15:21:00,
2013-02-03 07:32:00,35.0,35.0,30.19,SW,219,6.0,9.0,108,-99.99,,,-99.99,,2013-02-03 15:32:00,
2013-02-03 07:41:00,35.0,35.0,30.19,SW,216,5.0,10.0,108,-99.99,,,-99.99,,2013-02-03 15:41:00,
2013-02-03 07:51:00,35.0,35.0,30.20,SW,230,7.0,15.0,108,-99.99,,,-99.99,,2013-02-03 15:51:00,
2013-02-03 08:02:00,35.0,35.0,30.20,SW,222,7.0,13.0,108,-99.99,,,-99.99,,2013-02-03 16:02:00,
2013-02-03 08:11:00,35.0,35.0,30.20,SW,220,7.0,9.0,108,-99.99,,,-99.99,,2013-02-03 16:11:00,
2013-02-03 08:21:00,35.0,35.0,30.20,SW,219,8.0,14.0,108,-99.99,,,-99.99,,2013-02-03 16:21:00,
2013-02-03 08:32:00,35.0,35.0,30.21,SW,216,8.0,13.0,108,-99.99,,,-99.99,,2013-02-03 16:32:00,
2013-02-03 08:41:00,35.0,35.0,30.21,SW,223,9.0,13.0,108,-99.99,,,-99.99,,2013-02-03 16:41:00,
2013-02-03 08:52:00,35.0,35.0,30.21,SSW,213,6.0,11.0,108,-99.99,,,-99.99,,2013-02-03 16:52:00,
2013-02-03 09:02:00,35.0,35.0,30.21,SW,221,7.0,11.0,108,-99.99,,,-99.99,,2013-02-03 17:02:00,
2013-02-03 09:11:00,35.0,35.0,30.21,SSW,207,6.0,11.0,108,-99.99,,,-99.99,,2013-02-03 17:11:00,
2013-02-03 09:21:00,35.0,35.0,30.20,SSW,210,7.0,13.0,108,-99.99,,,-99.99,,2013-02-03 17:21:00,
2013-02-03 09:31:00,35.0,35.0,30.20,SSW,211,6.0,14.0,108,-99.99,,,-99.99,,2013-02-03 17:31:00,
2013-02-03 09:42:00,35.0,35.0,30.21,SSW,211,7.0,11.0,108,-99.99,,,-99.99,,2013-02-03 17:42:00,
2013-02-03 09:52:00,35.0,35.0,30.21,SSW,194,4.0,8.0,108,-99.99,,,-99.99,,2013-02-03 17:52:00,
2013-02-03 10:02:00,36.0,36.0,30.22,SW,222,6.0,11.0,108,-99.99,,,-99.99,,2013-02-03 18:02:00,
2013-02-03 10:11:00,36.0,36.0,30.22,SSW,206,7.0,13.0,108,-99.99,,,-99.99,,2013-02-03 18:11:00,
2013-02-03 10:23:00,36.0,36.0,30.22,SW,217,8.0,12.0,108,-99.99,,,-99.99,,2013-02-03 18:23:00,
2013-02-03 10:32:00,36.0,36.0,30.22,SW,214,7.0,11.0,108,-99.99,,,-99.99,,2013-02-03 18:32:00,
2013-02-03 10:41:00,36.0,36.0,30.22,SW,224,7.0,11.0,108,-99.99,,,-99.99,,2013-02-03 18:41:00,
2013-02-03 10:51:00,36.0,36.0,30.23,SW,231,6.0,9.0,108,-99.99,,,-99.99,,2013-02-03 18:51:00,
2013-02-03 11:02:00,36.0,36.0,30.23,WSW,239,6.0,9.0,108,-99.99,,,-99.99,,2013-02-03 19:02:00,
2013-02-03 11:11:00,36.0,36.0,30.23,SSW,213,7.0,12.0,108,-99.99,,,-99.99,,2013-02-03 19:11:00,
2013-02-03 11:21:00,36.0,36.0,30.22,SW,218,6.0,10.0,108,-99.99,,,-99.99,,2013-02-03 19:21:00,
2013-02-03 11:31:00,36.0,36.0,30.23,SW,221,6.0,9.0,108,-99.99,,,-99.99,,2013-02-03 19:31:00,
2013-02-03 11:41:00,36.0,36.0,30.23,South,184,4.0,8.0,108,-99.99,,,-99.99,,2013-02-03 19:41:00,
2013-02-03 11:51:00,36.0,36.0,30.22,SSW,212,4.0,7.0,108,-99.99,,,-99.99,,2013-02-03 19:51:00,
2013-02-03 12:01:00,36.0,36.0,30.22,South,187,4.0,7.0,108,-99.99,,,-99.99,,2013-02-03 20:01:00,
2013-02-03 12:11:00,36.0,36.0,30.22,SSW,194,5.0,10.0,108,-99.99,,,-99.99,,2013-02-03 20:11:00,
2013-02-03 12:21:00,36.0,36.0,30.21,South,189,4.0,9.0,108,-99.99,,,-99.99,,2013-02-03 20:21:00,
2013-02-03 12:32:00,36.0,36.0,30.21,SSW,201,6.0,11.0,108,-99.99,,,-99.99,,2013-02-03 20:32:00,
2013-02-03 12:42:00,36.0,36.0,30.21,South,190,4.0,9.0,108,-99.99,,,-99.99,,2013-02-03 20:42:00,
2013-02-03 12:52:00,36.0,36.0,30.20,SSW,209,5.0,8.0,108,-99.99,,,-99.99,,2013-02-03 20:52:00,
2013-02-03 13:03:00,37.0,37.0,30.20,SSW,201,5.0,9.0,108,-99.99,,,-99.99,,2013-02-03 21:03:00,
2013-02-03 13:11:00,37.0,37.0,30.20,SW,216,3.0,8.0,108,-99.99,,,-99.99,,2013-02-03 21:11:00,
2013-02-03 13:21:00,37.0,37.0,30.20,WSW,237,4.0,8.0,108,-99.99,,,-99.99,,2013-02-03 21:21:00,
2013-02-03 13:32:00,37.0,37.0,30.19,SW,225,5.0,8.0,108,-99.99,,,-99.99,,2013-02-03 21:32:00,
2013-02-03 13:42:00,37.0,37.0,30.19,SW,230,5.0,7.0,108,-99.99,,,-99.99,,2013-02-03 21:42:00,
2013-02-03 13:51:00,37.0,37.0,30.19,WSW,238,5.0,8.0,108,-99.99,,,-99.99,,2013-02-03 21:51:00,
2013-02-03 14:01:00,37.0,37.0,30.18,SW,225,5.0,8.0,108,-99.99,,,-99.99,,2013-02-03 22:01:00,
2013-02-03 14:11:00,37.0,37.0,30.18,South,190,3.0,7.0,108,-99.99,,,-99.99,,2013-02-03 22:11:00,
2013-02-03 14:21:00,37.0,37.0,30.18,SW,224,6.0,8.0,108,-99.99,,,-99.99,,2013-02-03 22:21:00,
2013-02-03 14:32:00,37.0,37.0,30.17,SW,230,4.0,5.0,108,-99.99,,,-99.99,,2013-02-03 22:32:00,
2013-02-03 14:41:00,37.0,37.0,30.17,SW,220,3.0,4.0,108,-99.99,,,-99.99,,2013-02-03 22:41:00,
2013-02-03 14:51:00,37.0,37.0,30.17,WSW,257,5.0,8.0,108,-99.99,,,-99.99,,2013-02-03 22:51:00,
2013-02-03 15:01:00,37.0,37.0,30.17,WSW,244,4.0,6.0,108,-99.99,,,-99.99,,2013-02-03 23:01:00,
2013-02-03 15:11:00,37.0,37.0,30.17,WSW,243,4.0,7.0,108,-99.99,,,-99.99,,2013-02-03 23:11:00,
2013-02-03 15:21:00,36.0,36.0,30.17,SW,230,6.0,8.0,108,-99.99,,,-99.99,,2013-02-03 23:21:00,
2013-02-03 15:32:00,36.0,36.0,30.17,WSW,245,4.0,6.0,108,-99.99,,,-99.99,,2013-02-03 23:32:00,
2013-02-03 15:41:00,36.0,36.0,30.17,SW,224,5.0,7.0,108,-99.99,,,-99.99,,2013-02-03 23:41:00,
2013-02-03 15:52:00,36.0,36.0,30.17,WSW,238,5.0,8.0,108,-99.99,,,-99.99,,2013-02-03 23:52:00,
2013-02-03 16:01:00,36.0,36.0,30.18,WSW,252,5.0,9.0,108,-99.99,,,-99.99,,2013-02-04 00:01:00,
2013-02-03 16:11:00,36.0,36.0,30.18,WSW,250,5.0,9.0,108,-99.99,,,-99.99,,2013-02-04 00:11:00,
2013-02-03 16:21:00,35.0,35.0,30.18,WSW,245,7.0,11.0,108,-99.99,,,-99.99,,2013-02-04 00:21:00,
2013-02-03 16:31:00,35.0,35.0,30.18,West,264,8.0,14.0,108,-99.99,,,-99.99,,2013-02-04 00:31:00,
2013-02-03 16:41:00,35.0,35.0,30.18,West,260,7.0,11.0,108,-99.99,,,-99.99,,2013-02-04 00:41:00,
2013-02-03 16:51:00,35.0,35.0,30.18,WSW,252,8.0,12.0,108,-99.99,,,-99.99,,2013-02-04 00:51:00,
2013-02-03 17:01:00,35.0,35.0,30.18,WSW,252,8.0,12.0,108,-99.99,,,-99.99,,2013-02-04 01:01:00,
2013-02-03 17:11:00,35.0,35.0,30.17,WSW,258,9.0,14.0,108,-99.99,,,-99.99,,2013-02-04 01:11:00,
2013-02-03 17:21:00,35.0,35.0,30.17,West,261,6.0,9.0,108,-99.99,,,-99.99,,2013-02-04 01:21:00,
2013-02-03 17:31:00,35.0,35.0,30.17,WNW,285,8.0,15.0,108,-99.99,,,-99.99,,2013-02-04 01:31:00,
2013-02-03 17:41:00,35.0,35.0,30.18,West,275,9.0,14.0,108,-99.99,,,-99.99,,2013-02-04 01:41:00,
2013-02-03 17:52:00,35.0,35.0,30.18,West,262,6.0,10.0,108,-99.99,,,-99.99,,2013-02-04 01:52:00,
2013-02-03 18:01:00,35.0,35.0,30.17,West,260,7.0,9.0,108,-99.99,,,-99.99,,2013-02-04 02:01:00,
2013-02-03 18:11:00,35.0,35.0,30.17,West,270,5.0,8.0,108,-99.99,,,-99.99,,2013-02-04 02:11:00,
2013-02-03 18:21:00,35.0,35.0,30.17,West,266,4.0,7.0,108,-99.99,,,-99.99,,2013-02-04 02:21:00,
2013-02-03 18:31:00,35.0,35.0,30.17,West,277,4.0,7.0,108,-99.99,,,-99.99,,2013-02-04 02:31:00,
2013-02-03 18:41:00,35.0,35.0,30.17,WSW,250,6.0,9.0,108,-99.99,,,-99.99,,2013-02-04 02:41:00,
2013-02-03 18:52:00,35.0,35.0,30.17,WSW,250,6.0,10.0,108,-99.99,,,-99.99,,2013-02-04 02:52:00,
2013-02-03 19:01:00,35.0,35.0,30.17,WSW,250,6.0,10.0,108,-99.99,,,-99.99,,2013-02-04 03:01:00,
2013-02-03 19:11:00,35.0,35.0,30.17,WSW,244,5.0,9.0,108,-99.99,,,-99.99,,2013-02-04 03:11:00,
2013-02-03 19:21:00,35.0,35.0,30.17,WSW,246,6.0,9.0,108,-99.99,,,-99.99,,2013-02-04 03:21:00,
2013-02-03 19:31:00,35.0,35.0,30.16,SW,235,5.0,8.0,108,-99.99,,,-99.99,,2013-02-04 03:31:00,
2013-02-03 19:41:00,35.0,35.0,30.16,WSW,255,6.0,9.0,108,-99.99,,,-99.99,,2013-02-04 03:41:00,
2013-02-03 19:51:00,35.0,35.0,30.16,WSW,243,5.0,8.0,108,-99.99,,,-99.99,,2013-02-04 03:51:00,
2013-02-03 20:01:00,35.0,35.0,30.16,WSW,244,5.0,8.0,108,-99.99,,,-99.99,,2013-02-04 04:01:00,
2013-02-03 20:11:00,35.0,35.0,30.16,SW,234,5.0,8.0,108,-99.99,,,-99.99,,2013-02-04 04:11:00,
2013-02-03 20:21:00,35.0,35.0,30.16,SSW,211,6.0,9.0,108,-99.99,,,-99.99,,2013-02-04 04:21:00,
2013-02-03 20:31:00,35.0,35.0,30.16,South,182,5.0,8.0,108,-99.99,,,-99.99,,2013-02-04 04:31:00,
2013-02-03 20:41:00,34.0,34.0,30.15,SSE,163,6.0,9.0,108,-99.99,,,-99.99,,2013-02-04 04:41:00,
2013-02-03 20:52:00,34.0,34.0,30.15,SSE,159,7.0,10.0,108,-99.99,,,-99.99,,2013-02-04 04:52:00,
2013-02-03 21:03:00,35.0,35.0,30.15,SSE,161,8.0,11.0,108,-99.99,,,-99.99,,2013-02-04 05:03:00,
2013-02-03 21:11:00,35.0,35.0,30.16,SW,232,5.0,9.0,108,-99.99,,,-99.99,,2013-02-04 05:11:00,
2013-02-03 21:22:00,35.0,35.0,30.16,WSW,249,4.0,7.0,108,-99.99,,,-99.99,,2013-02-04 05:22:00,
2013-02-03 21:33:00,35.0,35.0,30.16,WSW,243,6.0,9.0,108,-99.99,,,-99.99,,2013-02-04 05:33:00,
2013-02-03 21:42:00,35.0,35.0,30.16,SW,215,6.0,9.0,108,-99.99,,,-99.99,,2013-02-04 05:42:00,
2013-02-03 21:52:00,35.0,35.0,30.16,SW,230,6.0,10.0,108,-99.99,,,-99.99,,2013-02-04 05:52:00,
2013-02-03 22:01:00,35.0,35.0,30.16,SSW,212,6.0,8.0,108,-99.99,,,-99.99,,2013-02-04 06:01:00,
2013-02-03 22:11:00,35.0,35.0,30.17,WSW,241,6.0,9.0,108,-99.99,,,-99.99,,2013-02-04 06:11:00,
2013-02-03 22:21:00,35.0,35.0,30.16,SW,234,6.0,9.0,108,-99.99,,,-99.99,,2013-02-04 06:21:00,
2013-02-03 22:31:00,35.0,35.0,30.16,SW,231,7.0,10.0,108,-99.99,,,-99.99,,2013-02-04 06:31:00,
2013-02-03 22:41:00,35.0,35.0,30.16,SW,231,7.0,10.0,108,-99.99,,,-99.99,,2013-02-04 06:41:00,
2013-02-03 22:51:00,35.0,35.0,30.15,SSW,213,7.0,10.0,108,-99.99,,,-99.99,,2013-02-04 06:51:00,
2013-02-03 23:01:00,35.0,35.0,30.15,SSW,193,5.0,8.0,108,-99.99,,,-99.99,,2013-02-04 07:01:00,
2013-02-03 23:11:00,35.0,35.0,30.15,SSE,164,5.0,9.0,108,-99.99,,,-99.99,,2013-02-04 07:11:00,
2013-02-03 23:21:00,35.0,35.0,30.15,SSE,160,5.0,8.0,108,-99.99,,,-99.99,,2013-02-04 07:21:00,
2013-02-03 23:31:00,35.0,35.0,30.15,SW,221,6.0,11.0,108,-99.99,,,-99.99,,2013-02-04 07:31:00,
2013-02-03 23:41:00,35.0,35.0,30.15,SW,221,6.0,11.0,108,-99.99,,,-99.99,,2013-02-04 07:41:00,
2013-02-03 23:51:00,35.0,35.0,30.14,South,171,6.0,9.0,108,-99.99,,,-99.99,,2013-02-04 07:51:00,